Location: Bakov nad Jizerou
(50.4784°N, 14.9394°E)
Time: 09:22:49
(UTC+00:00)

Meteor 2-1 Rocket - Pass Details

Date: 16 June 2021
Orbit: 829 x 908 km, 81.3° (Epoch: 04 August)

Event Time Altitude Azimuth Distance (km) Brightness Sun altitude
Rises 22:37:35 0° 346° (NNW) 3,384 9.1 -16.0°
Reaches altitude 10° 22:40:00 10° 344° (NNW) 2,447 7.9 -16.0°
Maximum altitude 22:45:29 71° 262° (W) 884 4.2 -16.1°
Enters shadow 22:48:43 25° 184° (S) 1,612 5.1 -16.1°
